Lid_Strength_Index
-0 0 3 5 9 11 13 11 9 9 9 7 6 7 9 8 10 13 2 0 -0 -0 -1 -1 -1 -2 -2 -1 -2 -2 -2 -2 -1 -2 -2 -2 -2 -2 -2 -3 -3 -2 -2 -2 -2 -2 -2 -2 -2
0 1 4 8 11 15 14 10 10 9 7 6 6 6 7 9 5 4 3 0 -0 -0 -1 -1 -1 -2 -2 -2 -2 -2 -2 -2 -2 -2 -2 -2 -2 -2 -2 -2 -3 -2 -2 -2 -2 -2 -2 -2 -1
1 1 6 10 11 14 14 10 9 7 6 7 8 6 7 8 4 3 1 0 -0 -0 -1 -1 -1 -2 -1 -2 -2 -2 -2 -2 -1 -2 -2 -2 -2 -2 -3 -2 -3 -3 -2 -2 -2 -2 -2 -2 -2
4 5 6 11 13 11 10 9 7 8 7 6 6 9 5 3 4 2 1 0 0 -0 -1 -0 -1 -2 -1 -2 -2 -2 -2 -2 -1 -1 -2 -2 -2 -2 -3 -2 -3 -2 -2 -2 -2 -2 -2 -2 -2
5 7 10 12 12 11 9 7 7 8 8 7 7 9 7 4 2 1 1 0 0 -0 -1 -1 -1 -1 -2 -2 -1 -2 -2 -2 -2 -1 -2 -2 -2 -2 -3 -2 -2 -2 -2 -1 -1 -2 -2 -1 -2
8 9 12 14 12 10 9 8 7 8 7 7 7 8 7 3 2 2 1 1 -0 -0 -1 -1 1 -0 -1 -1 -1 -2 -2 -2 -2 -2 -1 -2 -2 -2 -2 -2 -2 -1 -1 -1 -1 -2 -1 -1 -1
9 10 12 12 12 10 9 8 8 8 8 7 6 9 6 4 2 2 2 1 0 -0 -0 -1 -1 -0 1 -0 -0 -1 -1 -1 -1 -2 -2 -2 -2 -2 -2 -3 -3 -2 -2 -1 -1 -1 -1 -1 -1
8 9 12 12 12 11 8 7 7 7 8 5 5 9 9 4 2 2 2 2 2 1 0 0 -0 -1 -0 -0 1 0 -0 -1 -1 -1 -1 0 -0 -1 -1 -1 -2 -3 -3 -3 -3 -2 -1 -1 -1
7 12 13 12 11 10 7 8 7 6 6 6 5 6 4 2 2 2 3 3 2 1 1 1 0 -0 -0 -0 0 1 1 1 0 0 0 1 -0 -0 -0 -0 -1 -2 -2 -2 -3 -2 -2 -1 -1
9 12 11 8 9 9 8 7 7 7 7 7 6 4 3 3 3 3 4 3 3 2 2 1 1 1 0 -0 -0 -0 -0 1 0 -0 0 0 0 0 -0 1 1 -0 -1 -1 -2 -2 -1 1 2
8 11 8 8 7 7 7 7 7 8 9 7 7 6 4 4 4 4 3 3 3 3 2 1 1 1 1 1 1 -0 -1 -0 -0 0 1 1 1 1 2 1 1 1 2 0 -1 -0 0 1 2
10 7 7 7 6 7 7 6 8 8 8 5 4 4 4 4 4 4 4 4 4 3 2 2 1 1 1 1 1 0 -0 -0 -0 -0 -0 0 2 2 1 2 1 2 2 2 2 2 2 2 2
9 8 7 6 6 7 6 8 8 8 6 6 5 5 5 5 5 5 5 5 4 3 3 2 2 2 1 1 1 1 1 0 -0 0 0 1 0 2 2 2 2 1 1 2 2 2 2 2 2
8 8 7 7 7 7 8 8 8 7 6 6 5 5 5 5 5 6 5 5 5 4 5 4 3 1 2 2 1 1 1 1 1 0 -0 0 1 1 2 2 2 2 2 1 2 1 2 2 2
8 10 9 9 8 8 7 10 9 7 7 6 6 6 5 5 5 5 5 5 5 5 5 4 4 3 2 1 1 1 1 1 1 1 1 0 -0 1 1 2 2 2 2 2 2 2 2 2 2
10 11 13 9 8 8 8 13 8 6 7 7 7 7 6 6 5 5 4 6 5 5 5 5 4 4 4 3 1 0 1 1 2 1 1 1 0 -0 1 1 1 1 2 2 3 3 3 3 3
13 17 15 13 9 9 9 13 9 8 8 7 8 7 7 7 6 5 6 6 6 5 5 5 4 5 4 4 3 2 1 1 1 2 1 1 1 0 -0 0 1 1 1 1 1 2 2 3 2
16 16 15 15 13 10 11 12 10 9 9 9 9 9 9 8 7 7 6 6 5 5 5 5 4 4 4 4 4 3 2 1 1 1 1 1 0 -0 0 0 0 1 1 1 1 1 2 2 2
13 15 15 14 12 12 12 13 11 10 10 10 10 9 9 8 8 7 6 6 6 6 6 6 6 5 4 4 5 4 3 2 2 1 1 1 2 2 1 0 0 0 1 1 1 1 2 2 2
11 13 15 13 10 11 12 13 11 11 11 9 9 9 8 9 8 7 7 7 7 8 8 7 6 6 5 4 4 4 4 3 2 1 1 1 1 1 0 0 0 0 1 1 1 1 2 2 2
12 13 13 13 11 11 12 15 13 11 10 10 9 8 8 8 9 9 8 8 8 9 9 8 8 7 7 6 3 3 4 3 3 2 2 3 2 2 1 0 -0 0 0 1 1 1 1 3 2
14 10 10 11 13 17 12 20 15 13 12 11 10 10 9 9 9 8 8 9 9 9 9 9 9 9 8 8 6 5 5 5 5 5 4 3 4 6 6 5 5 4 1 1 1 1 1 1 3
12 9 10 11 13 15 14 17 16 13 14 12 11 10 9 9 8 9 9 9 9 9 10 11 10 9 9 9 9 9 9 9 10 9 9 8 8 9 9 8 7 7 6 4 4 3 1 1 2
8 11 11 12 14 18 15 15 18 15 13 12 11 9 8 9 9 9 9 9 10 10 11 11 11 11 10 11 10 11 12 12 12 11 11 11 10 11 11 10 9 9 8 8 7 5 3 4 1
10 13 19 20 20 20 15 15 15 13 11 11 10 10 9 9 9 9 10 10 11 11 11 11 12 12 11 11 12 12 13 13 13 13 12 12 12 12 12 11 11 10 9 9 8 7 6 5 4
12 13 17 22 21 19 15 18 16 11 10 10 9 9 9 10 9 10 10 11 11 11 12 12 13 13 12 12 13 13 13 13 13 13 13 13 13 13 12 12 11 11 10 10 9 8 8 8 8
13 15 11 16 18 19 17 16 12 11 11 10 10 9 10 10 10 10 11 11 11 12 13 13 14 14 13 14 14 14 15 15 15 14 14 14 13 13 13 12 12 11 10 10 9 10 10 9 9
11 10 16 15 21 24 19 18 17 14 12 10 10 9 9 9 10 10 11 11 12 12 14 14 14 15 15 15 15 15 15 15 15 15 15 15 14 13 13 13 12 12 11 11 10 10 10 10 9
12 13 13 13 16 21 23 20 14 12 11 11 10 9 9 9 10 10 11 12 13 14 15 15 16 16 16 15 15 16 16 15 15 15 15 15 14 14 14 13 12 12 12 11 11 11 11 10 10
10 12 12 16 18 16 17 18 12 12 12 10 10 9 8 9 9 10 12 13 14 15 15 16 16 16 16 16 16 16 16 16 16 16 16 15 15 14 14 13 13 12 12 12 12 12 12 12 11